[[{"header":{"parameterUnit":"m.s-1","parameterCategory":1,"la1":30.2991,"la2":30.254,"lo1":-89.0895,"lo2":-89.0444,"dy":0.0017,"dx":0.0017,"nx":28,"ny":28,"refTime":"2024-06-21T03:00:00:Z","depth":0,"parameterNumber":2,"parameterNumberName":"U-component_of_WINDS"},"data":[0,0,0,0,0,0,0,0,0,0,0,0,0,0,0,0,0,0,0,0,0,0,0,0,0,0,0,0,0,0,0,0,0,0,0,0,0,0,0,0,0,0,0,0,0,0,0,0,0,0,0,0,0,0,0,0,0,0,-4.1066,-4.1066,0,-4.1051,-4.1051,-4.105,-4.092,-4.0916,-4.0913,-4.091,-4.0897,-4.0899,-4.0902,0,0,0,0,0,0,0,0,0,0,0,0,0,-4.0984,-4.0986,-4.1066,-4.1066,-4.1065,-4.1051,-4.1051,-4.105,-4.092,-4.0916,-4.0912,-4.0909,-4.0896,-4.0899,-4.0902,0,0,0,0,0,0,0,0,0,0,0,0,0,-4.0999,-4.0987,-4.1066,-4.0999,-4.0992,-4.1051,-4.1051,-4.105,-4.0921,-4.0916,-4.0911,-4.0907,-4.0895,-4.0899,-4.0903,-4.1025,0,0,-4.0915,-4.0917,0,0,0,0,0,0,0,0,-4.0999,-4.1003,-4.1009,-4.1003,-4.0997,-4.0982,-4.1017,-4.1042,-4.0922,-4.0948,-4.091,-4.0904,-4.0929,-4.093,-4.0938,-4.1024,-4.1024,-4.0915,-4.0918,-4.0919,-4.0921,0,0,0,0,0,0,0,-4.0998,-4.1003,-4.106,-4.1009,-4.1002,-4.097,-4.0967,-4.1021,-4.0966,-4.0946,-4.0936,-4.0936,-4.0925,-4.0935,-4.0937,-4.1023,-4.0915,-4.0919,-4.0921,-4.0923,-4.121,-4.1215,0,0,0,0,0,0,-4.1006,-4.1002,-4.106,-4.1059,-4.0986,-4.0976,-4.0972,-4.0992,-4.0965,-4.0957,-4.094,-4.093,-4.093,-4.0932,-4.0936,-4.1077,-4.0919,-4.0923,-4.0925,-4.1205,-4.1211,-4.1217,0,0,0,0,0,0,-4.1005,-4.1012,-4.1061,-4.1028,-4.1032,-4.0982,-4.1005,-4.0994,-4.1003,-4.0961,-4.0951,-4.096,-4.0926,-4.093,-4.1004,-4.1075,-4.0925,-4.0929,-4.1198,-4.1207,-4.1214,-4.1361,0,0,0,0,0,0,-4.1003,-4.1013,-4.1058,-4.103,-4.1034,-4.1129,-4.101,-4.0997,-4.101,-4.0997,-4.0977,-4.0969,-4.0923,-4.0998,-4.1008,-4.1077,-4.0932,-4.1192,-4.1202,-4.1211,-4.1349,-4.1372,-4.1392,0,0,0,0,0,-4.1,-4.11,-4.1061,-4.1068,-4.109,-4.1133,-4.1135,-4.108,-4.1017,-4.1062,-4.1035,-4.097,-4.1066,-4.1007,-4.1016,-4.1088,-4.1187,-4.1199,-4.1211,-4.1339,-4.1368,-4.1392,0,0,0,0,0,0,-4.1137,-4.1095,-4.1051,-4.1145,-4.1143,-4.1111,-4.1166,-4.1111,-4.1128,-4.1115,-4.1046,-4.1043,-4.1127,-4.1115,-4.105,-4.1206,-4.1115,-4.1129,-4.121,-4.1237,-4.1258,-4.1259,-4.0935,0,0,0,0,0,-4.1178,-4.1216,-4.1178,-4.1264,-4.1266,-4.1217,-4.1233,-4.1191,-4.1187,-4.1186,-4.1164,-4.1164,-4.1193,-4.1214,-4.124,-4.1347,-4.1341,-4.1402,-4.1423,-4.1441,-4.1454,-4.1511,-4.1537,-4.1255,-4.1255,-4.1255,0,0,-4.1263,-4.1245,-4.1273,-4.1291,-4.1285,-4.1327,-4.1217,-4.1265,-4.1296,-4.1193,-4.1261,-4.1246,-4.124,-4.1332,-4.1371,-4.1324,-4.1531,-4.1456,-4.1471,-4.1474,-4.1526,-4.1552,-4.1576,-4.1263,-4.1262,-4.126,0,0,-4.144,-4.143,-4.15,-4.1497,-4.1489,-4.1456,-4.1474,-4.145,-4.1435,-4.1502,-4.1427,-4.1462,-4.1515,-4.1515,-4.1522,-4.17,-4.164,-4.171,-4.1823,-4.1879,-4.1901,-4.192,-4.1984,-4.2007,-4.1723,-4.1724,-4.1724,0,-4.1546,-4.1605,-4.1544,-4.1598,-4.1608,-4.1517,-4.1589,-4.1589,-4.159,-4.16,-4.1548,-4.1613,-4.1603,-4.1693,-4.1737,-4.1746,-4.1764,-4.1711,-4.1903,-4.1921,-4.1939,-4.1998,-4.2023,-4.1732,-4.1731,-4.173,-4.173,0,-4.1737,-4.1779,-4.1838,-4.1841,-4.1858,-4.1921,-4.187,-4.1895,-4.1852,-4.1825,-4.1895,-4.188,-4.1901,-4.1919,-4.1877,-4.2004,-4.1975,-4.1915,-4.1822,-4.1975,-4.203,-4.2052,-4.1744,-4.1741,-4.1739,-4.1737,0,0,-4.1997,-4.1967,-4.1989,-4.199,-4.1975,-4.2007,-4.2067,-4.2087,-4.2109,-4.2114,-4.2162,-4.221,-4.2154,-4.2162,-4.212,-4.2169,-4.2311,-4.2101,-4.21,-4.2141,-4.245,-4.2496,-4.2523,-4.2272,-4.2277,-4.228,-4.245,0,-4.2166,-4.2264,-4.2212,-4.2317,-4.2356,-4.2271,-4.2323,-4.2321,-4.2298,-4.2328,-4.2302,-4.2337,-4.226,-4.2264,-4.231,-4.2285,-4.2372,-4.2272,-4.2317,-4.2319,-4.232,-4.2552,-4.26,-4.2761,-4.2472,-4.2475,-4.2478,0,-4.2375,-4.2389,-4.2498,-4.2478,-4.2492,-4.2539,-4.2554,-4.2584,-4.258,-4.2559,-4.257,-4.2516,-4.2573,-4.2483,-4.2562,-4.2495,-4.251,-4.2501,-4.2506,-4.2507,-4.2407,-4.2559,-4.2811,-4.2836,-4.2511,-4.2508,-4.2506,0,-4.2554,-4.2599,-4.2671,-4.2674,-4.2652,-4.2687,-4.268,-4.2671,-4.2687,-4.27,-4.271,-4.2731,-4.2742,-4.2759,-4.2713,-4.2652,-4.2799,-4.2704,-4.2784,-4.2785,-4.2817,-4.2816,-4.3076,-4.283,-4.2829,-4.2829,-4.2828,0,-4.2747,-4.2817,-4.275,-4.2794,-4.2871,-4.2811,-4.2889,-4.2872,-4.2866,-4.2906,-4.2835,-4.2874,-4.2811,-4.2844,-4.2809,-4.288,-4.2885,-4.2871,-4.2861,-4.2877,-4.2879,-4.2885,-4.2873,-4.2835,-4.2834,-4.2833,-4.2831,0,-4.2958,-4.2916,-4.2988,-4.2962,-4.2957,-4.3015,-4.2992,-4.3032,-4.3005,-4.3057,-4.3065,-4.3023,-4.3058,-4.3015,-4.3046,-4.3023,-4.3119,-4.3092,-4.312,-4.3112,-4.3194,-4.3187,-4.3466,-4.35,-4.3234,-4.3236,-4.3238,0,-4.3084,-4.3136,-4.3115,-4.3136,-4.3133,-4.3169,-4.3184,-4.3128,-4.3148,-4.3148,-4.3189,-4.3219,-4.3239,-4.33,-4.3273,-4.3297,-4.327,-4.3366,-4.3273,-4.3288,-4.3271,-4.3268,-4.3273,-4.3385,-4.3388,-4.3391,-4.3393,0,-4.3311,-4.3288,-4.3313,-4.3332,-4.3353,-4.3365,-4.3372,-4.3394,-4.3336,-4.3362,-4.3397,-4.3413,-4.3446,-4.3477,-4.3494,-4.3487,-4.3431,-4.3423,-4.3442,-4.3459,-4.3473,-4.3466,-4.3171,-4.3416,-4.3414,-4.3412,-4.3411,-4.341,-4.3482,-4.3525,-4.3517,-4.3548,-4.3548,-4.3556,-4.3593,-4.357,-4.3599,-4.362,-4.3586,-4.3631,-4.3627,-4.3644,-4.3644,-4.3679,-4.3637,-4.3666,-4.3673,-4.368,-4.3693,-4.3469,-4.3682,-4.3681,-4.368,-4.368,-4.3679,0,-4.3705,-4.3697,-4.3726,-4.3738,-4.3763,-4.3708,-4.3713,-4.3738,-4.3778,-4.3779,-4.3801,-4.3842,-4.3872,-4.3848,-4.3873,-4.3905,-4.3881,-4.3914,-4.391,-4.391,-4.3728,-4.3709,-4.3934,-4.3933,-4.3933,-4.3933,-4.3933,-4.3933,-4.3824,-4.3893,-4.387,-4.3939,-4.3929,-4.3972,-4.398,-4.3988,-4.3988,-4.4038,-4.4062,-4.4046,-4.4037,-4.4061,-4.4086,-4.4078,-4.4091,-4.4133,-4.4117,-4.3947,-4.3922,-4.3899,-4.388,-4.4137,-4.4137,-4.4295,-4.4296,-4.4297]},{"header":{"parameterUnit":"m.s-1","parameterCategory":1,"la1":30.2991,"la2":30.254,"lo1":-89.0895,"lo2":-89.0444,"dy":0.0017,"dx":0.0017,"nx":28,"ny":28,"refTime":"2024-06-21T03:00:00:Z","depth":0,"parameterNumber":3,"parameterNumberName":"V-component_of_WINDS"},"data":[0,0,0,0,0,0,0,0,0,0,0,0,0,0,0,0,0,0,0,0,0,0,0,0,0,0,0,0,0,0,0,0,0,0,0,0,0,0,0,0,0,0,0,0,0,0,0,0,0,0,0,0,0,0,0,0,0,0,1.29,1.2901,0,1.2923,1.2924,1.2924,1.3009,1.3011,1.3013,1.3015,1.3031,1.303,1.3029,0,0,0,0,0,0,0,0,0,0,0,0,0,1.2924,1.2923,1.29,1.2901,1.2901,1.2923,1.2924,1.2924,1.3009,1.3011,1.3014,1.3016,1.3032,1.303,1.3029,0,0,0,0,0,0,0,0,0,0,0,0,0,1.2927,1.2923,1.29,1.2946,1.2951,1.2923,1.2924,1.2924,1.3008,1.3011,1.3014,1.3017,1.3032,1.303,1.3028,1.2956,0,0,1.3022,1.3021,0,0,0,0,0,0,0,0,1.2927,1.2926,1.2939,1.2943,1.2948,1.2967,1.2938,1.2935,1.3008,1.2986,1.3015,1.3019,1.3007,1.3007,1.3005,1.2957,1.2958,1.3022,1.302,1.302,1.3019,0,0,0,0,0,0,0,1.2926,1.2925,1.2909,1.2939,1.2945,1.2964,1.2967,1.2938,1.2979,1.2988,1.2995,1.2997,1.301,1.3007,1.3006,1.2958,1.3022,1.302,1.3019,1.3018,1.2852,1.2849,0,0,0,0,0,0,1.292,1.2925,1.2909,1.291,1.2945,1.2961,1.2965,1.2958,1.298,1.2987,1.2994,1.3001,1.3009,1.3008,1.3007,1.2923,1.302,1.3018,1.3016,1.2855,1.2851,1.2848,0,0,0,0,0,0,1.2921,1.2918,1.2908,1.2919,1.2919,1.2957,1.2948,1.2956,1.2953,1.2985,1.2992,1.2983,1.3011,1.301,1.2969,1.2925,1.3017,1.3015,1.2859,1.2854,1.2849,1.2756,0,0,0,0,0,0,1.2921,1.2918,1.2892,1.2918,1.2918,1.2871,1.2946,1.2955,1.295,1.2959,1.2977,1.2982,1.3013,1.2971,1.2967,1.2924,1.3013,1.2863,1.2857,1.2851,1.2763,1.2749,1.2737,0,0,0,0,0,1.2922,1.2864,1.289,1.2888,1.2888,1.2868,1.2868,1.2907,1.2947,1.292,1.294,1.2982,1.2931,1.2966,1.2962,1.2918,1.2866,1.2858,1.2851,1.2769,1.2752,1.2737,0,0,0,0,0,0,1.2829,1.2868,1.2898,1.2847,1.2854,1.2883,1.2851,1.2887,1.2881,1.2889,1.2936,1.2939,1.2891,1.2901,1.2939,1.2849,1.2905,1.2897,1.2844,1.2828,1.2815,1.2813,1.3011,0,0,0,0,0,1.2803,1.2786,1.282,1.2772,1.2774,1.2812,1.2805,1.2835,1.2842,1.2845,1.2862,1.2866,1.2852,1.2841,1.2829,1.2766,1.277,1.2733,1.272,1.2709,1.27,1.2667,1.2651,1.2825,1.2825,1.2825,0,0,1.2748,1.2768,1.2754,1.2754,1.2763,1.2742,1.2813,1.2789,1.2773,1.2841,1.2803,1.2816,1.2824,1.2771,1.2749,1.2778,1.2654,1.27,1.2691,1.2688,1.2658,1.2641,1.2627,1.282,1.2821,1.2821,0,0,1.2638,1.2652,1.2613,1.2621,1.2635,1.266,1.2651,1.2674,1.2686,1.265,1.27,1.2682,1.2655,1.2659,1.2657,1.2549,1.2586,1.2544,1.2473,1.244,1.2426,1.2415,1.2375,1.236,1.2536,1.2536,1.2536,0,1.2568,1.2541,1.2588,1.256,1.2558,1.2621,1.2581,1.2586,1.2593,1.259,1.2623,1.2591,1.2601,1.255,1.2524,1.2521,1.251,1.2541,1.2425,1.2414,1.2403,1.2366,1.2351,1.253,1.2531,1.2532,1.2532,0,1.2454,1.2434,1.2401,1.241,1.2404,1.237,1.2409,1.2398,1.2428,1.245,1.2411,1.2426,1.2418,1.2408,1.2437,1.2361,1.2378,1.2417,1.2474,1.238,1.2346,1.2332,1.2523,1.2525,1.2526,1.2528,0,0,1.2284,1.232,1.2307,1.2312,1.2332,1.2316,1.2285,1.228,1.2268,1.2272,1.2245,1.2222,1.2259,1.2257,1.2286,1.2258,1.217,1.23,1.2301,1.2274,1.2086,1.2055,1.2038,1.2196,1.2193,1.2191,1.2085,0,1.2178,1.2129,1.217,1.2112,1.2094,1.2154,1.2126,1.2134,1.2153,1.2139,1.216,1.2143,1.2193,1.2192,1.2167,1.2186,1.2132,1.2195,1.2169,1.2168,1.2164,1.202,1.1987,1.1886,1.2072,1.2069,1.2068,0,1.2048,1.2048,1.1989,1.2013,1.2007,1.1982,1.198,1.1967,1.1977,1.1993,1.1991,1.2029,1.1997,1.2055,1.2012,1.2053,1.2045,1.2053,1.205,1.2048,1.2111,1.2012,1.1855,1.1839,1.2047,1.2049,1.205,0,1.1929,1.1914,1.1877,1.1879,1.1907,1.1887,1.1897,1.1911,1.1905,1.1903,1.1899,1.1893,1.1888,1.1882,1.1916,1.1955,1.1867,1.1928,1.1877,1.1876,1.1855,1.1855,1.1692,1.1852,1.1852,1.1853,1.1853,0,1.1806,1.1766,1.1824,1.18,1.1758,1.1805,1.1761,1.1777,1.1788,1.1768,1.1819,1.1798,1.1845,1.1828,1.1855,1.1814,1.1812,1.1822,1.1829,1.1817,1.1815,1.1811,1.1818,1.1849,1.185,1.185,1.1851,0,1.1664,1.1701,1.1664,1.1695,1.1701,1.1668,1.1693,1.1671,1.1695,1.1668,1.1665,1.17,1.1684,1.1718,1.1705,1.1722,1.1665,1.1684,1.1662,1.1667,1.1614,1.1618,1.1441,1.142,1.1595,1.1593,1.1591,0,1.1583,1.1554,1.1582,1.1573,1.1581,1.1566,1.1561,1.1606,1.1599,1.1608,1.1585,1.1573,1.1566,1.1536,1.1559,1.1549,1.1567,1.1506,1.1566,1.1554,1.1564,1.1565,1.1562,1.1493,1.1491,1.1489,1.1488,0,1.1433,1.1453,1.1445,1.1443,1.1437,1.1437,1.144,1.143,1.1478,1.1466,1.1451,1.1445,1.1434,1.142,1.1416,1.1425,1.1463,1.1469,1.1457,1.1443,1.1431,1.1435,1.1626,1.1472,1.1474,1.1475,1.1476,1.1476,1.1318,1.1296,1.1312,1.1301,1.1309,1.1312,1.1293,1.1315,1.1304,1.13,1.1327,1.1305,1.1315,1.1314,1.1319,1.1301,1.1328,1.131,1.1306,1.13,1.1291,1.1435,1.1301,1.1301,1.1302,1.1302,1.1302,0,1.117,1.1184,1.1174,1.1179,1.117,1.121,1.1216,1.1205,1.1187,1.1194,1.1187,1.1169,1.1156,1.118,1.117,1.1152,1.1169,1.1147,1.1148,1.1149,1.1268,1.1279,1.1134,1.1134,1.1134,1.1134,1.1134,1.1134,1.1092,1.1056,1.1078,1.1045,1.1059,1.1041,1.104,1.1042,1.1049,1.1027,1.1018,1.1034,1.1047,1.104,1.103,1.1037,1.103,1.1002,1.1015,1.1125,1.1141,1.1157,1.1167,1.1001,1.1,1.0897,1.0896,1.0896]}]]